| time (UTC) | temp F | wind direction | speed MPH | gust MPH | rain 1hr in | rain 24hr in | rain mn in | humidity % | barometer mb |
| 20260507110834 | 48 | 297 | 4.0 | 7.0 | 0.00 | 0.00 | 0.00 | 87 | 1006.5 |
| 20260507110334 | 48 | 305 | 6.0 | 9.0 | 0.00 | 0.00 | 0.00 | 87 | 1006.4 |
| 20260507105834 | 48 | 298 | 7.0 | 10.0 | 0.00 | 0.00 | 0.00 | 87 | 1006.1 |
| 20260507105334 | 48 | 296 | 8.0 | 10.0 | 0.00 | 0.00 | 0.00 | 87 | 1006.1 |
| 20260507104834 | 48 | 289 | 9.0 | 11.0 | 0.00 | 0.00 | 0.00 | 87 | 1006.1 |
| 20260507104334 | 48 | 288 | 8.0 | 13.0 | 0.00 | 0.00 | 0.00 | 88 | 1005.9 |
| 20260507103834 | 48 | 289 | 8.0 | 11.0 | 0.00 | 0.00 | 0.00 | 88 | 1005.9 |
| 20260507103334 | 48 | 277 | 8.0 | 11.0 | 0.00 | 0.00 | 0.00 | 88 | 1006.3 |
| 20260507102834 | 48 | 278 | 9.0 | 12.0 | 0.00 | 0.00 | 0.00 | 88 | 1006.2 |
| 20260507102334 | 48 | 284 | 8.0 | 12.0 | 0.00 | 0.00 | 0.00 | 88 | 1006.0 |
| 20260507101834 | 48 | 280 | 7.0 | 10.0 | 0.00 | 0.00 | 0.00 | 88 | 1005.9 |
| 20260507101334 | 48 | 274 | 7.0 | 13.0 | 0.00 | 0.00 | 0.00 | 88 | 1005.9 |
| 20260507100834 | 48 | 261 | 10.0 | 12.0 | 0.00 | 0.00 | 0.00 | 88 | 1006.2 |
| 20260507100334 | 48 | 258 | 9.0 | 13.0 | 0.00 | 0.00 | 0.00 | 88 | 1006.1 |
| 20260507095834 | 48 | 263 | 8.0 | 12.0 | 0.00 | 0.00 | 0.00 | 88 | 1005.8 |
| 20260507095334 | 48 | 256 | 9.0 | 13.0 | 0.00 | 0.00 | 0.00 | 88 | 1006.0 |
| 20260507094834 | 48 | 252 | 11.0 | 13.0 | 0.00 | 0.00 | 0.00 | 88 | 1005.9 |
| 20260507094334 | 48 | 250 | 9.0 | 14.0 | 0.00 | 0.00 | 0.00 | 88 | 1005.8 |
| 20260507093834 | 48 | 255 | 11.0 | 16.0 | 0.00 | 0.00 | 0.00 | 88 | 1005.8 |
| 20260507093334 | 48 | 250 | 14.0 | 17.0 | 0.00 | 0.00 | 0.00 | 88 | 1006.0 |
| 20260507092834 | 48 | 253 | 13.0 | 15.0 | 0.00 | 0.00 | 0.00 | 88 | 1005.8 |
| 20260507092334 | 48 | 251 | 12.0 | 15.0 | 0.00 | 0.00 | 0.00 | 88 | |
| 20260507091834 | 48 | 252 | 13.0 | 16.0 | 0.00 | 0.00 | 0.00 | 88 | 1005.7 |
| 20260507091334 | 48 | 251 | 13.0 | 16.0 | 0.00 | 0.00 | 0.00 | 88 | |
| 20260507090834 | 48 | 260 | 10.0 | 14.0 | 0.00 | 0.00 | 0.00 | 88 | 1005.6 |
| 20260507090334 | 48 | 271 | 12.0 | 16.0 | 0.00 | 0.00 | 0.00 | 87 | 1005.3 |
| 20260507085834 | 48 | 273 | 11.0 | 17.0 | 0.00 | 0.00 | 0.00 | 87 | |
| 20260507085334 | 49 | 267 | 11.0 | 16.0 | 0.00 | 0.00 | 0.00 | 87 | |
| 20260507084833 | 49 | 261 | 11.0 | 18.0 | 0.00 | 0.00 | 0.00 | 87 | |
| 20260507084334 | 49 | 272 | 12.0 | 17.0 | 0.00 | 0.00 | 0.00 | 87 | 1005.2 |
| 20260507083833 | 49 | 268 | 14.0 | 19.0 | 0.00 | 0.00 | 0.00 | 87 | |
| 20260507083334 | 49 | 270 | 12.0 | 18.0 | 0.00 | 0.00 | 0.00 | 87 | 1005.2 |
| 20260507082834 | 49 | 266 | 12.0 | 16.0 | 0.00 | 0.00 | 0.00 | 87 | 1005.2 |
| 20260507082334 | 49 | 264 | 12.0 | 17.0 | 0.00 | 0.00 | 0.00 | 87 | 1005.3 |
| 20260507081834 | 49 | 260 | 14.0 | 20.0 | 0.00 | 0.00 | 0.00 | 87 | |
| 20260507081334 | 49 | 263 | 12.0 | 18.0 | 0.00 | 0.00 | 0.00 | 87 | |
| 20260507080834 | 50 | 258 | 15.0 | 24.0 | 0.00 | 0.00 | 0.00 | 87 | 1005.1 |
| 20260507080334 | 50 | 256 | 16.0 | 21.0 | 0.00 | 0.00 | 0.00 | 87 | |
| 20260507075834 | 50 | 257 | 14.0 | 18.0 | 0.00 | 0.00 | 0.00 | 87 | |
| 20260507075334 | 50 | 262 | 13.0 | 19.0 | 0.00 | 0.00 | 0.00 | 87 | 1005.0 |
| 20260507074833 | 50 | 262 | 12.0 | 21.0 | 0.00 | 0.00 | 0.00 | 88 | 1004.9 |
| 20260507074333 | 50 | 260 | 13.0 | 21.0 | 0.00 | 0.00 | 0.00 | 88 | 1004.9 |
| 20260507073834 | 50 | 260 | 13.0 | 20.0 | 0.00 | 0.00 | 0.00 | 88 | 1004.7 |
| 20260507073333 | 50 | 265 | 15.0 | 20.0 | 0.00 | 0.00 | 0.00 | 88 | 1004.7 |
| 20260507072833 | 50 | 257 | 14.0 | 23.0 | 0.00 | 0.00 | 0.00 | 88 | 1004.7 |
| 20260507072333 | 50 | 254 | 15.0 | 20.0 | 0.00 | 0.00 | 0.00 | 88 | 1004.9 |
| 20260507071833 | 50 | 251 | 13.0 | 19.0 | 0.00 | 0.00 | 0.00 | 88 | 1004.9 |
| 20260507071334 | 50 | 253 | 14.0 | 22.0 | 0.00 | 0.00 | 0.00 | 89 | 1004.7 |
| 20260507070833 | 50 | 251 | 16.0 | 21.0 | 0.00 | 0.00 | 0.00 | 89 | 1004.5 |
| 20260507070333 | 50 | 251 | 17.0 | 24.0 | 0.00 | 0.00 | 0.00 | 90 | 1004.5 |
| 20260507065833 | 50 | 255 | 18.0 | 24.0 | 0.00 | 0.00 | 0.00 | 90 | |
| 20260507065333 | 50 | 249 | 16.0 | 24.0 | 0.00 | 0.00 | 0.00 | 90 | 1004.7 |
| 20260507064834 | 50 | 250 | 15.0 | 19.0 | 0.00 | 0.00 | 0.00 | 90 | |
| 20260507064333 | 50 | 252 | 14.0 | 19.0 | 0.00 | 0.00 | 0.00 | 91 | |
| 20260507063833 | 50 | 239 | 12.0 | 18.0 | 0.00 | 0.00 | 0.00 | 91 | 1004.3 |
| 20260507063333 | 50 | 240 | 13.0 | 18.0 | 0.00 | 0.00 | 0.00 | 91 | 1004.4 |
| 20260507062833 | 50 | 247 | 13.0 | 18.0 | 0.00 | 0.00 | 0.00 | 91 | 1004.3 |
| 20260507062333 | 50 | 251 | 14.0 | 19.0 | 0.00 | 0.00 | 0.00 | 92 | |
| 20260507061833 | 50 | 248 | 12.0 | 18.0 | 0.00 | 0.00 | 0.00 | 92 | 1004.4 |
| 20260507061333 | 50 | 242 | 13.0 | 17.0 | 0.00 | 0.00 | 0.00 | 92 | |
| 20260507060833 | 50 | 249 | 13.0 | 18.0 | 0.00 | 0.00 | 0.00 | 92 | 1004.4 |
| 20260507060333 | 50 | 254 | 16.0 | 21.0 | 0.00 | 0.00 | 0.00 | 93 | 1004.4 |
| 20260507055833 | 50 | 253 | 16.0 | 20.0 | 0.00 | 0.00 | 0.00 | 93 | 1004.5 |
| 20260507055333 | 50 | 244 | 14.0 | 17.0 | 0.00 | 0.00 | 0.00 | 93 | 1004.6 |
| 20260507054833 | 50 | 231 | 10.0 | 17.0 | 0.00 | 0.00 | 0.00 | 93 | |
| 20260507054333 | 50 | 233 | 12.0 | 17.0 | 0.00 | 0.00 | 0.00 | 93 | |
| 20260507053833 | 51 | 229 | 12.0 | 19.0 | 0.00 | 0.00 | 0.00 | 94 | |
| 20260507053333 | 51 | 219 | 9.0 | 15.0 | 0.00 | 0.00 | 0.00 | 94 | 1004.8 |
| 20260507052833 | 51 | 220 | 7.0 | 15.0 | 0.00 | 0.00 | 0.00 | 94 | 1004.5 |
| 20260507052333 | 51 | 246 | 13.0 | 21.0 | 0.00 | 0.00 | 0.00 | 94 | 1004.6 |
| 20260507051833 | 51 | 246 | 16.0 | 25.0 | 0.00 | 0.00 | 0.00 | 95 | 1004.7 |
| 20260507051341 | 51 | 242 | 18.0 | 25.0 | 0.00 | 0.00 | 0.00 | 95 | |
| 20260507050833 | 51 | 236 | 13.0 | 19.0 | 0.00 | 0.00 | 0.00 | 94 | 1004.7 |
| 20260507050333 | 51 | 240 | 12.0 | 17.0 | 0.00 | 0.00 | 0.00 | 94 | 1004.4 |
| 20260507045833 | 52 | 254 | 12.0 | 15.0 | 0.00 | 0.00 | 0.00 | 95 | 1004.2 |
| 20260507045333 | 52 | 244 | 13.0 | 16.0 | 0.00 | 0.00 | 0.00 | 95 | 1004.3 |
| 20260507044833 | 52 | 230 | 9.0 | 14.0 | 0.00 | 0.00 | 0.00 | 95 | 1004.4 |
| 20260507044333 | 52 | 231 | 9.0 | 14.0 | 0.00 | 0.00 | 0.00 | 95 | 1004.7 |
| 20260507043833 | 53 | 239 | 11.0 | 17.0 | 0.00 | 0.00 | 0.00 | 95 | 1004.7 |
| 20260507043333 | 53 | 238 | 13.0 | 18.0 | 0.00 | 0.00 | 0.00 | 95 | 1004.6 |
| 20260507042833 | 53 | 233 | 11.0 | 17.0 | 0.00 | 0.00 | 0.00 | 95 | 1004.6 |
| 20260507042333 | 53 | 226 | 11.0 | 16.0 | 0.00 | 0.00 | 0.00 | 95 | 1004.5 |
| 20260507041833 | 53 | 237 | 11.0 | 14.0 | 0.00 | 0.00 | 0.00 | 95 | |
| 20260507041333 | 54 | 231 | 11.0 | 15.0 | 0.00 | 0.00 | 0.00 | 95 | 1004.5 |
| 20260507040833 | 54 | 225 | 9.0 | 15.0 | 0.00 | 0.00 | 0.00 | 94 | 1004.4 |
| 20260507040333 | 55 | 223 | 10.0 | 17.0 | 0.00 | 0.00 | 0.00 | 95 | 1004.3 |
| 20260507035833 | 54 | 214 | 9.0 | 14.0 | 0.00 | 0.00 | 0.00 | 95 | 1004.1 |
| 20260507035333 | 55 | 215 | 8.0 | 16.0 | 0.00 | 0.00 | 0.00 | 95 | |
| 20260507034833 | 55 | 212 | 11.0 | 18.0 | 0.00 | 0.00 | 0.00 | 96 | 1004.2 |
| 20260507034333 | 53 | 199 | 11.0 | 17.0 | 0.00 | 0.00 | 0.00 | 96 | |
| 20260507033833 | 52 | 173 | 8.0 | 13.0 | 0.00 | 0.00 | 0.00 | 95 | |
| 20260507033333 | 53 | 168 | 9.0 | 14.0 | 0.00 | 0.00 | 0.00 | 95 | 1003.9 |
| 20260507032833 | 52 | 163 | 8.0 | 13.0 | 0.00 | 0.00 | 0.00 | 95 | |
| 20260507032333 | 52 | 161 | 8.0 | 14.0 | 0.00 | 0.00 | 0.00 | 95 | 1003.8 |
| 20260507031833 | 52 | 160 | 9.0 | 15.0 | 0.00 | 0.00 | 0.00 | 95 | 1003.7 |
| 20260507031333 | 52 | 163 | 9.0 | 13.0 | 0.00 | 0.00 | 0.00 | 95 | 1003.7 |
| 20260507030833 | 53 | 157 | 9.0 | 16.0 | 0.00 | 0.00 | 0.00 | 94 | |
| 20260507030333 | 54 | 154 | 10.0 | 17.0 | 0.00 | 0.00 | 0.00 | 95 | 1003.6 |
| 20260507025833 | 54 | 153 | 11.0 | 20.0 | 0.00 | 0.00 | 0.00 | 95 | |
| 20260507025333 | 54 | 150 | 13.0 | 21.0 | 0.00 | 0.00 | 0.00 | 95 | 1003.7 |
| 20260507024833 | 54 | 149 | 11.0 | 19.0 | 0.00 | 0.00 | 0.00 | 95 | 1003.6 |
| 20260507024333 | 54 | 146 | 12.0 | 18.0 | 0.00 | 0.00 | 0.00 | 95 | 1003.7 |
| 20260507023833 | 54 | 156 | 11.0 | 18.0 | 0.00 | 0.00 | 0.00 | 95 | 1003.9 |
| 20260507023333 | 53 | 145 | 11.0 | 16.0 | 0.00 | 0.00 | 0.00 | 95 | |
| 20260507022833 | 53 | 147 | 12.0 | 18.0 | 0.00 | 0.00 | 0.00 | 95 | 1003.7 |
| 20260507022333 | 54 | 142 | 11.0 | 17.0 | 0.00 | 0.00 | 0.00 | 95 | 1003.9 |
| 20260507021832 | 53 | 150 | 12.0 | 18.0 | 0.00 | 0.00 | 0.00 | 95 | 1003.7 |
| 20260507021332 | 53 | 151 | 13.0 | 20.0 | 0.00 | 0.00 | 0.00 | 95 | |
| 20260507020833 | 52 | 154 | 11.0 | 19.0 | 0.00 | 0.00 | 0.00 | 95 | |
| 20260507020332 | 52 | 155 | 11.0 | 18.0 | 0.00 | 0.00 | 0.00 | 95 | 1004.0 |
| 20260507015832 | 52 | 154 | 12.0 | 21.0 | 0.00 | 0.00 | 0.00 | 95 | 1004.0 |
| 20260507015332 | 52 | 156 | 12.0 | 19.0 | 0.00 | 0.00 | 0.00 | 95 | 1003.9 |
| 20260507014833 | 52 | 152 | 11.0 | 20.0 | 0.00 | 0.00 | 0.00 | 94 | 1004.0 |
| 20260507014333 | 53 | 155 | 13.0 | 20.0 | 0.00 | 0.00 | 0.00 | 95 | 1003.9 |
| 20260507013833 | 53 | 150 | 13.0 | 25.0 | 0.00 | 0.00 | 0.00 | 95 | 1004.1 |
| 20260507013332 | 53 | 154 | 13.0 | 20.0 | 0.00 | 0.00 | 0.00 | 94 | 1004.1 |
| 20260507012832 | 53 | 151 | 12.0 | 20.0 | 0.00 | 0.00 | 0.00 | 95 | |
| 20260507012332 | 53 | 147 | 11.0 | 24.0 | 0.00 | 0.00 | 0.00 | 94 | 1004.2 |
| 20260507011832 | 53 | 151 | 13.0 | 26.0 | 0.00 | 0.00 | 0.00 | 94 | 1004.2 |
| 20260507011332 | 53 | 146 | 13.0 | 24.0 | 0.00 | 0.00 | 0.00 | 94 | 1004.2 |
| 20260507010833 | 53 | 143 | 14.0 | 24.0 | 0.00 | 0.00 | 0.00 | 94 | |
| 20260507010333 | 53 | 143 | 15.0 | 22.0 | 0.00 | 0.00 | 0.00 | 94 | 1004.2 |
| 20260507005832 | 53 | 141 | 14.0 | 26.0 | 0.00 | 0.00 | 0.00 | 94 | 1004.2 |
| 20260507005332 | 53 | 142 | 15.0 | 27.0 | 0.00 | 0.00 | 0.00 | 94 | |
| 20260507004832 | 53 | 148 | 16.0 | 26.0 | 0.00 | 0.00 | 0.00 | 94 | 1004.1 |
| 20260507004332 | 53 | 150 | 14.0 | 29.0 | 0.00 | 0.00 | 0.00 | 94 | 1004.2 |
| 20260507003832 | 53 | 149 | 16.0 | 29.0 | 0.00 | 0.00 | 0.00 | 94 | 1004.3 |
| 20260507003332 | 53 | 143 | 17.0 | 26.0 | 0.00 | 0.00 | 0.00 | 94 | 1004.2 |
| 20260507002832 | 53 | 143 | 17.0 | 26.0 | 0.00 | 0.00 | 0.00 | 94 | 1003.9 |
| 20260507002332 | 53 | 143 | 15.0 | 25.0 | 0.00 | 0.00 | 0.00 | 94 | 1004.1 |
| 20260507001832 | 53 | 141 | 17.0 | 28.0 | 0.00 | 0.00 | 0.00 | 94 | 1004.0 |
| 20260507001332 | 53 | 136 | 17.0 | 26.0 | 0.00 | 0.00 | 0.00 | 94 | 1004.0 |
| 20260507000832 | 53 | 140 | 16.0 | 25.0 | 0.00 | 0.00 | 0.00 | 94 | 1003.9 |
| 20260507000332 | 53 | 133 | 15.0 | 22.0 | 0.00 | 0.00 | 0.00 | 94 | |
| 20260506235832 | 53 | 137 | 13.0 | 23.0 | 0.00 | 0.00 | 0.00 | 94 | 1004.0 |
| 20260506235332 | 53 | 136 | 13.0 | 21.0 | 0.00 | 0.00 | 0.00 | 94 | 1004.0 |
| 20260506234832 | 52 | 136 | 12.0 | 21.0 | 0.00 | 0.00 | 0.00 | 94 | 1004.1 |
| 20260506234332 | 52 | 129 | 14.0 | 24.0 | 0.00 | 0.00 | 0.00 | 94 | 1004.0 |
| 20260506233833 | 52 | 130 | 14.0 | 21.0 | 0.00 | 0.00 | 0.00 | 94 | 1004.1 |
| 20260506233332 | 52 | 126 | 13.0 | 19.0 | 0.00 | 0.00 | 0.00 | 93 | 1004.2 |
| 20260506232832 | 52 | 126 | 11.0 | 17.0 | 0.00 | 0.00 | 0.00 | 93 | 1004.3 |
| 20260506232332 | 53 | 127 | 12.0 | 19.0 | 0.00 | 0.00 | 0.00 | 93 | 1004.3 |
| 20260506231832 | 53 | 129 | 13.0 | 21.0 | 0.00 | 0.00 | 0.00 | 93 | 1004.3 |
| 20260506231332 | 53 | 133 | 12.0 | 21.0 | 0.00 | 0.00 | 0.00 | 93 | 1004.4 |
| 20260506230832 | 53 | 135 | 13.0 | 22.0 | 0.00 | 0.00 | 0.00 | 93 | 1004.4 |
| 20260506230332 | 54 | 134 | 15.0 | 24.0 | 0.00 | 0.00 | 0.00 | 93 | 1004.1 |
| 20260506225832 | 54 | 136 | 16.0 | 24.0 | 0.00 | 0.00 | 0.00 | 93 | 1004.3 |
| 20260506225332 | 53 | 137 | 13.0 | 21.0 | 0.00 | 0.00 | 0.00 | 93 | 1004.3 |
| 20260506224832 | 53 | 133 | 10.0 | 18.0 | 0.00 | 0.00 | 0.00 | 92 | 1004.4 |
| 20260506224332 | 53 | 128 | 9.0 | 17.0 | 0.00 | 0.00 | 0.00 | 92 | 1004.4 |
| 20260506223832 | 54 | 132 | 12.0 | 21.0 | 0.00 | 0.00 | 0.00 | 92 | 1004.4 |
| 20260506223332 | 54 | 133 | 12.0 | 22.0 | 0.00 | 0.00 | 0.00 | 92 | |
| 20260506222832 | 54 | 136 | 14.0 | 23.0 | 0.00 | 0.00 | 0.00 | 92 | |
| 20260506222332 | 54 | 135 | 15.0 | 25.0 | 0.00 | 0.00 | 0.00 | 92 | |
| 20260506221832 | 54 | 134 | 14.0 | 23.0 | 0.00 | 0.00 | 0.00 | 92 | 1004.6 |
| 20260506221332 | 54 | 133 | 15.0 | 23.0 | 0.00 | 0.00 | 0.00 | 92 | |
| 20260506220832 | 54 | 134 | 15.0 | 23.0 | 0.00 | 0.00 | 0.00 | 92 | 1004.7 |
| 20260506220332 | 54 | 132 | 15.0 | 23.0 | 0.00 | 0.00 | 0.00 | 92 | |
| 20260506215832 | 54 | 131 | 14.0 | 23.0 | 0.00 | 0.00 | 0.00 | 91 | 1004.8 |
| 20260506215332 | 54 | 132 | 14.0 | 22.0 | 0.00 | 0.00 | 0.00 | 91 | |
| 20260506214832 | 54 | 135 | 15.0 | 23.0 | 0.00 | 0.00 | 0.00 | 91 | 1005.0 |
| 20260506214332 | 54 | 136 | 13.0 | 24.0 | 0.00 | 0.00 | 0.00 | 91 | 1005.1 |
| 20260506213832 | 54 | 136 | 13.0 | 22.0 | 0.00 | 0.00 | 0.00 | 91 | 1005.1 |
| 20260506213332 | 53 | 134 | 11.0 | 20.0 | 0.00 | 0.00 | 0.00 | 91 | 1005.1 |
| 20260506212832 | 53 | 135 | 13.0 | 20.0 | 0.00 | 0.00 | 0.00 | 91 | |
| 20260506212332 | 53 | 133 | 12.0 | 22.0 | 0.00 | 0.00 | 0.00 | 91 | |
| 20260506211831 | 53 | 135 | 14.0 | 20.0 | 0.00 | 0.00 | 0.00 | 91 | |
| 20260506211332 | 53 | 134 | 11.0 | 17.0 | 0.00 | 0.00 | 0.00 | 90 | 1005.4 |
| 20260506210732 | 53 | 131 | 11.0 | 19.0 | 0.00 | 0.00 | 0.00 | 90 | 1005.4 |
| 20260506210232 | 53 | 128 | 13.0 | 20.0 | 0.00 | 0.00 | 0.00 | 89 | 1005.4 |
| 20260506205631 | 54 | 127 | 13.0 | 20.0 | 0.00 | 0.00 | 0.00 | 89 | 1005.3 |
| 20260506205132 | 54 | 131 | 14.0 | 24.0 | 0.00 | 0.00 | 0.00 | 89 | 1005.2 |
| 20260506204631 | 54 | 134 | 14.0 | 23.0 | 0.00 | 0.00 | 0.00 | 89 | 1005.4 |
| 20260506204131 | 54 | 134 | 14.0 | 21.0 | 0.00 | 0.00 | 0.00 | 89 | 1005.4 |
| 20260506203632 | 54 | 134 | 13.0 | 20.0 | 0.00 | 0.00 | 0.00 | 89 | 1005.4 |
| 20260506203131 | 53 | 133 | 10.0 | 19.0 | 0.00 | 0.00 | 0.00 | 88 | 1005.5 |
| 20260506202632 | 53 | 130 | 12.0 | 20.0 | 0.00 | 0.00 | 0.00 | 88 | |
| 20260506202131 | 54 | 129 | 15.0 | 24.0 | 0.00 | 0.00 | 0.00 | 88 | 1005.1 |
| 20260506201632 | 54 | 129 | 16.0 | 24.0 | 0.00 | 0.00 | 0.00 | 88 | 1005.0 |
| 20260506201132 | 54 | 127 | 15.0 | 24.0 | 0.00 | 0.00 | 0.00 | 87 | 1005.0 |
| 20260506200631 | 54 | 128 | 16.0 | 23.0 | 0.00 | 0.00 | 0.00 | 87 | 1005.2 |
| 20260506200131 | 54 | 127 | 16.0 | 22.0 | 0.00 | 0.00 | 0.00 | 87 | 1005.2 |
| 20260506195631 | 55 | 128 | 13.0 | 25.0 | 0.00 | 0.00 | 0.00 | 87 | 1005.2 |
| 20260506195131 | 54 | 131 | 15.0 | 22.0 | 0.00 | 0.00 | 0.00 | 88 | 1005.4 |
| 20260506194631 | 54 | 127 | 12.0 | 24.0 | 0.00 | 0.00 | 0.00 | 87 | |
| 20260506194131 | 54 | 132 | 14.0 | 23.0 | 0.00 | 0.00 | 0.00 | 87 | |
| 20260506193632 | 54 | 133 | 14.0 | 23.0 | 0.00 | 0.00 | 0.00 | 87 | 1005.5 |
| 20260506193131 | 54 | 135 | 15.0 | 21.0 | 0.00 | 0.00 | 0.00 | 87 | 1005.5 |
| 20260506192632 | 54 | 129 | 13.0 | 22.0 | 0.00 | 0.00 | 0.00 | 86 | 1005.5 |
| 20260506192131 | 54 | 131 | 14.0 | 21.0 | 0.00 | 0.00 | 0.00 | 86 | 1005.4 |
| 20260506191631 | 54 | 133 | 14.0 | 21.0 | 0.00 | 0.00 | 0.00 | 85 | |
| 20260506191131 | 55 | 137 | 15.0 | 24.0 | 0.00 | 0.00 | 0.00 | 85 | 1005.6 |
| 20260506190631 | 55 | 132 | 17.0 | 25.0 | 0.00 | 0.00 | 0.00 | 84 | 1005.5 |
| 20260506190132 | 55 | 131 | 17.0 | 24.0 | 0.00 | 0.00 | 0.00 | 84 | 1005.4 |
| 20260506185631 | 55 | 132 | 14.0 | 23.0 | 0.00 | 0.00 | 0.00 | 84 | |
| 20260506185131 | 55 | 135 | 17.0 | 24.0 | 0.00 | 0.00 | 0.00 | 84 | |
| 20260506184631 | 55 | 131 | 18.0 | 25.0 | 0.00 | 0.00 | 0.00 | 84 | 1005.3 |
| 20260506184131 | 55 | 126 | 18.0 | 25.0 | 0.00 | 0.00 | 0.00 | 84 | 1005.3 |
| 20260506183631 | 55 | 128 | 16.0 | 25.0 | 0.00 | 0.00 | 0.00 | 84 | 1005.2 |
| 20260506183131 | 55 | 127 | 14.0 | 24.0 | 0.00 | 0.00 | 0.00 | 84 | 1005.4 |
| 20260506182631 | 55 | 127 | 15.0 | 22.0 | 0.00 | 0.00 | 0.00 | 84 | 1005.6 |
| 20260506182131 | 54 | 128 | 15.0 | 27.0 | 0.00 | 0.00 | 0.00 | 84 | 1005.7 |
| 20260506181631 | 54 | 125 | 15.0 | 27.0 | 0.00 | 0.00 | 0.00 | 84 | 1005.7 |
| 20260506181131 | 55 | 126 | 14.0 | 25.0 | 0.00 | 0.00 | 0.00 | 84 | 1005.6 |
| 20260506180631 | 55 | 128 | 17.0 | 25.0 | 0.00 | 0.00 | 0.00 | 84 | 1005.9 |
| 20260506180131 | 55 | 126 | 16.0 | 27.0 | 0.00 | 0.00 | 0.00 | 84 | 1005.9 |
| 20260506175631 | 55 | 127 | 20.0 | 27.0 | 0.00 | 0.00 | 0.00 | 83 | |
| 20260506175131 | 55 | 127 | 18.0 | 26.0 | 0.00 | 0.00 | 0.00 | 83 | 1005.9 |
| 20260506174631 | 55 | 124 | 18.0 | 27.0 | 0.00 | 0.00 | 0.00 | 84 | 1005.9 |
| 20260506174131 | 55 | 126 | 18.0 | 28.0 | 0.00 | 0.00 | 0.00 | 83 | |
| 20260506173631 | 55 | 123 | 22.0 | 31.0 | 0.00 | 0.00 | 0.00 | 83 | 1005.7 |
| 20260506173131 | 55 | 127 | 18.0 | 28.0 | 0.00 | 0.00 | 0.00 | 83 | 1005.9 |
| 20260506172631 | 55 | 127 | 17.0 | 27.0 | 0.00 | 0.00 | 0.00 | 83 | |
| 20260506172131 | 55 | 126 | 19.0 | 28.0 | 0.00 | 0.00 | 0.00 | 83 | |
| 20260506171631 | 55 | 127 | 19.0 | 29.0 | 0.00 | 0.00 | 0.00 | 83 | 1005.9 |
| 20260506171131 | 55 | 125 | 17.0 | 29.0 | 0.00 | 0.00 | 0.00 | 83 | 1006.2 |
| 20260506170631 | 55 | 124 | 17.0 | 26.0 | 0.00 | 0.00 | 0.00 | 83 | 1006.2 |
| 20260506170131 | 55 | 124 | 18.0 | 27.0 | 0.00 | 0.00 | 0.00 | 83 | 1006.2 |
| 20260506165531 | 55 | 126 | 16.0 | 26.0 | 0.00 | 0.00 | 0.00 | 83 | 1006.2 |
| 20260506165031 | 55 | 122 | 18.0 | 28.0 | 0.00 | 0.00 | 0.00 | 83 | |
| 20260506164531 | 55 | 121 | 16.0 | 25.0 | 0.00 | 0.00 | 0.00 | 83 | 1006.4 |
| 20260506164031 | 55 | 126 | 14.0 | 26.0 | 0.00 | 0.00 | 0.00 | 83 | 1006.4 |
| 20260506163531 | 55 | 124 | 16.0 | 25.0 | 0.00 | 0.00 | 0.00 | 83 | 1006.5 |
| 20260506163031 | 55 | 125 | 17.0 | 28.0 | 0.00 | 0.00 | 0.00 | 83 | 1006.6 |
| 20260506162531 | 55 | 123 | 15.0 | 26.0 | 0.00 | 0.00 | 0.00 | 84 | 1006.7 |
| 20260506162031 | 55 | 123 | 16.0 | 24.0 | 0.00 | 0.00 | 0.00 | 83 | 1006.9 |
| 20260506161531 | 55 | 121 | 17.0 | 25.0 | 0.00 | 0.00 | 0.00 | 83 | 1006.9 |
| 20260506161031 | 55 | 128 | 15.0 | 22.0 | 0.00 | 0.00 | 0.00 | 83 | 1007.1 |
| 20260506160531 | 55 | 124 | 16.0 | 24.0 | 0.00 | 0.00 | 0.00 | 83 | 1007.3 |
| 20260506160031 | 55 | 124 | 17.0 | 25.0 | 0.00 | 0.00 | 0.00 | 83 | |
| 20260506155530 | 55 | 125 | 16.0 | 25.0 | 0.00 | 0.00 | 0.00 | 83 | 1007.5 |
| 20260506155030 | 56 | 128 | 14.0 | 23.0 | 0.00 | 0.00 | 0.00 | 83 | |
| 20260506154531 | 56 | 131 | 16.0 | 23.0 | 0.00 | 0.00 | 0.00 | 83 | 1007.5 |
| 20260506154031 | 56 | 132 | 16.0 | 23.0 | 0.00 | 0.00 | 0.00 | 83 | |
| 20260506153531 | 56 | 131 | 16.0 | 25.0 | 0.00 | 0.00 | 0.00 | 83 | 1007.8 |
| 20260506153031 | 56 | 130 | 16.0 | 23.0 | 0.00 | 0.00 | 0.00 | 83 | 1007.7 |
| 20260506152531 | 55 | 130 | 14.0 | 25.0 | 0.00 | 0.00 | 0.00 | 83 | 1007.8 |
| 20260506152031 | 56 | 130 | 15.0 | 22.0 | 0.00 | 0.00 | 0.00 | 82 | |
| 20260506151530 | 56 | 133 | 14.0 | 21.0 | 0.00 | 0.00 | 0.00 | 82 | 1008.0 |
| 20260506151030 | 56 | 129 | 15.0 | 25.0 | 0.00 | 0.00 | 0.00 | 81 | 1008.0 |
| 20260506150530 | 57 | 138 | 15.0 | 23.0 | 0.00 | 0.00 | 0.00 | 82 | |
| 20260506150031 | 58 | 132 | 15.0 | 25.0 | 0.00 | 0.00 | 0.00 | 82 | 1007.8 |
| 20260506145530 | 58 | 134 | 15.0 | 27.0 | 0.00 | 0.00 | 0.00 | 83 | 1007.6 |
| 20260506145031 | 57 | 134 | 17.0 | 27.0 | 0.00 | 0.00 | 0.00 | 83 | |
| 20260506144530 | 57 | 132 | 16.0 | 27.0 | 0.00 | 0.00 | 0.00 | 83 | 1007.6 |
| 20260506144031 | 57 | 131 | 16.0 | 25.0 | 0.00 | 0.00 | 0.00 | 83 | |
| 20260506143530 | 57 | 128 | 16.0 | 25.0 | 0.00 | 0.00 | 0.00 | 83 | 1007.5 |
| 20260506143031 | 57 | 128 | 15.0 | 23.0 | 0.00 | 0.00 | 0.00 | 83 | 1007.5 |
| 20260506142530 | 57 | 128 | 17.0 | 24.0 | 0.00 | 0.00 | 0.00 | 83 | |
| 20260506142031 | 58 | 134 | 15.0 | 24.0 | 0.00 | 0.00 | 0.00 | 84 | 1007.5 |
| 20260506141530 | 57 | 135 | 16.0 | 26.0 | 0.00 | 0.00 | 0.00 | 84 | 1007.5 |
| 20260506141030 | 57 | 134 | 14.0 | 25.0 | 0.00 | 0.00 | 0.00 | 85 | 1007.6 |
| 20260506140531 | 56 | 133 | 14.0 | 24.0 | 0.00 | 0.00 | 0.00 | 85 | 1007.7 |
| 20260506140031 | 56 | 131 | 14.0 | 25.0 | 0.00 | 0.00 | 0.00 | 84 | |
| 20260506135531 | 56 | 136 | 15.0 | 23.0 | 0.00 | 0.00 | 0.00 | 84 | |
| 20260506135030 | 57 | 140 | 15.0 | 25.0 | 0.00 | 0.00 | 0.00 | 84 | 1008.0 |
| 20260506134530 | 57 | 139 | 14.0 | 23.0 | 0.00 | 0.00 | 0.00 | 84 | |
| 20260506134030 | 57 | 137 | 18.0 | 28.0 | 0.00 | 0.00 | 0.00 | 85 | 1008.0 |
| 20260506133530 | 57 | 145 | 15.0 | 29.0 | 0.00 | 0.00 | 0.00 | 85 | |
| 20260506133030 | 57 | 144 | 15.0 | 27.0 | 0.00 | 0.00 | 0.00 | 85 | 1008.0 |
| 20260506132530 | 57 | 138 | 16.0 | 27.0 | 0.00 | 0.00 | 0.00 | 86 | 1007.8 |
| 20260506132030 | 56 | 143 | 16.0 | 23.0 | 0.00 | 0.00 | 0.00 | 86 | 1008.0 |
| 20260506131530 | 56 | 143 | 14.0 | 22.0 | 0.00 | 0.00 | 0.00 | 86 | 1008.1 |
| 20260506131030 | 56 | 143 | 13.0 | 23.0 | 0.00 | 0.00 | 0.00 | 86 | 1008.2 |
| 20260506130530 | 56 | 141 | 13.0 | 25.0 | 0.00 | 0.00 | 0.00 | 86 | |
| 20260506130030 | 56 | 134 | 15.0 | 23.0 | 0.00 | 0.00 | 0.00 | 86 | |
| 20260506125530 | 56 | 138 | 15.0 | 23.0 | 0.00 | 0.00 | 0.00 | 86 | 1007.7 |
| 20260506125031 | 56 | 141 | 15.0 | 22.0 | 0.00 | 0.00 | 0.00 | 86 | |
| 20260506124530 | 56 | 141 | 14.0 | 23.0 | 0.00 | 0.00 | 0.00 | 86 | |
| 20260506124030 | 56 | 143 | 14.0 | 26.0 | 0.00 | 0.00 | 0.00 | 86 | 1008.1 |
| 20260506123530 | 56 | 142 | 14.0 | 25.0 | 0.00 | 0.00 | 0.00 | 87 | 1008.1 |
| 20260506123030 | 56 | 136 | 15.0 | 23.0 | 0.00 | 0.00 | 0.00 | 86 | 1008.0 |
| 20260506122530 | 55 | 139 | 15.0 | 25.0 | 0.00 | 0.00 | 0.00 | 87 | 1007.9 |
| 20260506122030 | 55 | 137 | 14.0 | 26.0 | 0.00 | 0.00 | 0.00 | 87 | 1007.9 |
| 20260506121530 | 55 | 142 | 14.0 | 26.0 | 0.00 | 0.00 | 0.00 | 87 | 1008.1 |
| 20260506121030 | 55 | 142 | 14.0 | 28.0 | 0.00 | 0.00 | 0.00 | 87 | 1008.1 |
| 20260506120530 | 55 | 140 | 13.0 | 24.0 | 0.00 | 0.00 | 0.00 | 87 | 1008.2 |
| 20260506120030 | 55 | 147 | 16.0 | 25.0 | 0.00 | 0.00 | 0.00 | 86 | 1008.3 |
| 20260506115530 | 55 | 144 | 14.0 | 25.0 | 0.00 | 0.00 | 0.00 | 87 | 1008.4 |
| 20260506115030 | 55 | 140 | 14.0 | 23.0 | 0.00 | 0.00 | 0.00 | 86 | 1008.5 |
| 20260506114530 | 56 | 146 | 14.0 | 25.0 | 0.00 | 0.00 | 0.00 | 86 | |
| 20260506114030 | 55 | 145 | 15.0 | 24.0 | 0.00 | 0.00 | 0.00 | 87 | 1008.4 |
| 20260506113530 | 55 | 144 | 16.0 | 26.0 | 0.00 | 0.00 | 0.00 | 87 | 1008.3 |
| 20260506113030 | 55 | 140 | 13.0 | 22.0 | 0.00 | 0.00 | 0.00 | 86 | 1008.3 |
| 20260506112530 | 55 | 142 | 16.0 | 23.0 | 0.00 | 0.00 | 0.00 | 86 | 1008.2 |
| 20260506112030 | 56 | 141 | 12.0 | 24.0 | 0.00 | 0.00 | 0.00 | 86 | |
| 20260506111530 | 56 | 147 | 15.0 | 25.0 | 0.00 | 0.00 | 0.00 | 87 | 1008.4 |